Location: Indian Hills
(32.9760°N, 85.9450°W)
Time: 14:37:41
(UTC+00:00)

ISS - Pass Details

Date: 15 March 2021
Orbit: 418 x 422 km, 51.6° (Epoch: 13 April)

Event Time Altitude Azimuth Distance (km) Brightness Sun altitude
Exits shadow 10:21:13 23° 170° (S) 920 -2.1 -20.1°
Drops below altitude 10° 10:22:46 10° 156° (SSE) 1,485 -0.8 -19.8°
Sets 10:24:54 0° 149° (SSE) 2,345 0.3 -19.4°
